Вернуться в каталог

THOR ABLESTAR DEB

АктивенLEO
NORAD 644·DEBRIS·🇺🇸 United States

Запущен Jun 29, 1961 с Cape Canaveral Space Force Station

Loading…

Ближайшие Пролёты (ближайшие 24 часа)

TLE

СвежийSource: Space-Track

Эпоха: Sep 14, 2026, 13:10 UTC

1 00644U 61015GV  26257.54883500  .00000551  00000-0  76339-3 0  9994
2 00644  67.0972  91.1511 0133469  49.8661 342.4433 13.61477059209901

Отслеживайте THOR ABLESTAR DEB в реальном времени с AllMySat

Download on the App Store